Location: Lamy Ridge Observatory
(35.5010°N, 105.8759°W)
Time: 20:02:49
(UTC-06:00)

ACS3 Solar Sail - Visible Passes

Search period start: 13 July 2025 00:00
Search period end: 23 July 2025 00:00
Orbit: 912 x 1023 km, 97.5° (Epoch: 13 July)

Date Brightness Start Highest point End Pass type
(mag) Time Alt. Az. Time Alt. Az. Time Alt. Az.
15 Jul 4.4 04:34:41 10° ENE 04:37:39 14° E 04:40:38 10° ESE visible
16 Jul 4.0 04:55:42 10° NE 05:00:23 23° E 05:05:08 10° SE visible
17 Jul 3.3 05:17:28 10° NNE 05:23:00 37° E 05:28:38 10° SSE visible
19 Jul 4.6 04:22:41 10° ENE 04:24:07 11° E 04:25:33 10° ESE visible
20 Jul 4.3 04:42:38 10° NE 04:46:48 19° E 04:50:59 10° SE visible
21 Jul 3.6 05:04:04 10° NE 05:09:21 30° E 05:14:43 10° SSE visible
22 Jul 2.9 05:25:57 10° NNE 05:31:49 48° E 05:37:48 10° S visible
